[[{"header":{"parameterUnit":"m.s-1","parameterCategory":1,"la1":30.2991,"la2":30.254,"lo1":-89.0895,"lo2":-89.0444,"dy":0.0017,"dx":0.0017,"nx":28,"ny":28,"refTime":"2026-02-02T09:00:00:Z","depth":0,"parameterNumber":2,"parameterNumberName":"U-component_of_WINDS"},"data":[0,0,0,0,0,0,0,0,0,0,0,0,0,0,0,0,0,0,0,0,0,0,0,0,0,0,0,0,0,0,0,0,0,0,0,0,0,0,0,0,0,0,0,0,0,0,0,0,0,0,0,0,0,0,0,0,0,0,1.0369,1.037,0,1.0485,1.0486,1.0487,1.052,1.0519,1.0519,1.0518,1.0638,1.0642,1.0646,0,0,0,0,0,0,0,0,0,0,0,0,0,1.018,1.0183,1.0369,1.037,1.0372,1.0484,1.0486,1.0488,1.052,1.0519,1.0519,1.0518,1.0637,1.0642,1.0646,0,0,0,0,0,0,0,0,0,0,0,0,0,1.0275,1.0184,1.0369,1.0402,1.0406,1.0484,1.0486,1.0488,1.052,1.0519,1.0518,1.0518,1.0636,1.0641,1.0647,1.0701,0,0,1.0664,1.0667,0,0,0,0,0,0,0,0,1.027,1.0282,1.0395,1.04,1.0404,1.0487,1.0463,1.056,1.0521,1.0477,1.0518,1.0517,1.0589,1.0598,1.0622,1.0707,1.0712,1.0665,1.0668,1.0671,1.0672,0,0,0,0,0,0,0,1.0263,1.0277,1.0415,1.0397,1.0403,1.0412,1.0424,1.0482,1.0537,1.0481,1.0483,1.0496,1.0591,1.0617,1.0625,1.0714,1.0665,1.067,1.0673,1.0675,1.0851,1.0853,0,0,0,0,0,0,1.0251,1.0272,1.0411,1.0418,1.0333,1.0416,1.043,1.0461,1.0536,1.0547,1.0497,1.0498,1.0607,1.0619,1.063,1.07,1.0671,1.0676,1.0679,1.085,1.0852,1.0853,0,0,0,0,0,0,1.0246,1.0263,1.0407,1.0346,1.0365,1.042,1.0455,1.0464,1.049,1.0549,1.0559,1.0513,1.0607,1.0622,1.0684,1.0704,1.0679,1.0684,1.0849,1.0851,1.0852,1.0839,0,0,0,0,0,0,1.0241,1.0261,1.0281,1.0346,1.0368,1.0457,1.0457,1.0467,1.0499,1.0501,1.0566,1.0576,1.0607,1.0675,1.0689,1.0712,1.0688,1.0847,1.0849,1.0852,1.0838,1.084,1.0842,0,0,0,0,0,1.0234,1.0273,1.0282,1.0299,1.0394,1.0458,1.0471,1.0506,1.0501,1.0522,1.0561,1.0574,1.07,1.0681,1.0697,1.0722,1.0846,1.0849,1.0852,1.0837,1.084,1.0842,0,0,0,0,0,0,1.0209,1.0282,1.0293,1.0354,1.04,1.0464,1.0492,1.0507,1.0556,1.0555,1.0597,1.0612,1.0671,1.0703,1.0681,1.078,1.0773,1.0779,1.0756,1.076,1.0762,1.0753,1.0693,0,0,0,0,0,1.0211,1.0256,1.0317,1.0365,1.0388,1.0436,1.0465,1.0488,1.0537,1.0557,1.06,1.0648,1.0699,1.0731,1.0781,1.0843,1.0858,1.0868,1.087,1.0871,1.0876,1.0914,1.0919,1.0862,1.0862,1.0862,0,0,1.0215,1.026,1.0286,1.0362,1.04,1.0447,1.0452,1.0501,1.0537,1.0565,1.0626,1.0659,1.0716,1.0779,1.0808,1.0807,1.0896,1.0875,1.0876,1.088,1.0917,1.0922,1.0927,1.0864,1.0864,1.0863,0,0,1.0246,1.0284,1.0329,1.0367,1.0425,1.0457,1.0468,1.0531,1.0554,1.0616,1.0638,1.0682,1.0767,1.0808,1.0839,1.0887,1.0902,1.0903,1.0914,1.095,1.0954,1.0958,1.0977,1.0983,1.0907,1.0907,1.0907,0,1.0243,1.0314,1.035,1.0399,1.0432,1.046,1.0506,1.0542,1.0613,1.0636,1.0633,1.0743,1.0783,1.0856,1.0868,1.0892,1.0907,1.0895,1.095,1.0955,1.096,1.0978,1.0984,1.0907,1.0907,1.0907,1.0907,0,1.0309,1.0358,1.0388,1.0456,1.0492,1.054,1.0584,1.0617,1.0637,1.067,1.0734,1.0783,1.0844,1.0863,1.0883,1.094,1.0937,1.0942,1.0937,1.0964,1.0982,1.0989,1.0907,1.0907,1.0907,1.0907,0,0,1.0327,1.0415,1.0426,1.0458,1.0524,1.0564,1.0613,1.0672,1.0701,1.0749,1.0793,1.0865,1.0871,1.0907,1.0932,1.0963,1.1,1.0964,1.0966,1.097,1.1067,1.1064,1.1071,1.101,1.1012,1.1013,1.1063,0,1.0367,1.0455,1.049,1.0562,1.0609,1.0637,1.068,1.0727,1.0759,1.0804,1.0841,1.0892,1.0894,1.0916,1.0949,1.0988,1.102,1.0985,1.1052,1.1054,1.1037,1.108,1.1076,1.1121,1.107,1.1071,1.1072,0,1.0425,1.0474,1.0551,1.0614,1.0635,1.0673,1.0731,1.0774,1.0828,1.085,1.089,1.0914,1.0969,1.096,1.1036,1.1012,1.1042,1.1066,1.1068,1.1076,1.1065,1.109,1.1136,1.1143,1.1083,1.1082,1.1082,0,1.0431,1.0517,1.0575,1.0601,1.0676,1.0702,1.0735,1.0788,1.0822,1.0873,1.0896,1.0953,1.0984,1.1028,1.1068,1.1057,1.1141,1.1135,1.1162,1.1161,1.1178,1.1176,1.123,1.1196,1.1196,1.1196,1.1196,0,1.0472,1.0518,1.0579,1.0614,1.0667,1.0708,1.076,1.0794,1.0842,1.0886,1.0913,1.0954,1.1003,1.105,1.1082,1.1141,1.1155,1.1175,1.1183,1.1173,1.117,1.1193,1.1191,1.1198,1.1197,1.1197,1.1197,0,1.0488,1.053,1.0595,1.066,1.0678,1.0715,1.0772,1.0808,1.0842,1.0897,1.0913,1.0967,1.1024,1.1068,1.1142,1.1163,1.1227,1.1235,1.1209,1.1213,1.1237,1.1234,1.1308,1.132,1.1277,1.1277,1.1277,0,1.0511,1.0548,1.0618,1.0649,1.0681,1.0731,1.0766,1.0808,1.0843,1.0909,1.0938,1.0997,1.1047,1.1138,1.1185,1.1242,1.1252,1.1274,1.1261,1.1251,1.1254,1.1251,1.1256,1.1276,1.1276,1.1276,1.1276,0,1.0549,1.0568,1.0617,1.0675,1.0716,1.0763,1.0811,1.0835,1.0886,1.0925,1.0984,1.1023,1.1099,1.1159,1.1221,1.1256,1.1275,1.128,1.129,1.128,1.1263,1.1274,1.1214,1.1278,1.1278,1.1278,1.1278,1.1278,1.057,1.0604,1.0659,1.0714,1.0754,1.0799,1.0836,1.0876,1.0926,1.0991,1.1013,1.1075,1.113,1.1216,1.1252,1.1302,1.1302,1.1315,1.1319,1.1322,1.1321,1.1255,1.1313,1.1313,1.1313,1.1313,1.1313,0,1.061,1.0647,1.0697,1.0763,1.0806,1.082,1.0874,1.091,1.0963,1.1013,1.1062,1.1131,1.1189,1.1241,1.1302,1.1332,1.1342,1.1347,1.1345,1.1353,1.1317,1.1303,1.1337,1.1337,1.1337,1.1337,1.1337,1.1337,1.0635,1.0695,1.0721,1.0801,1.0839,1.0899,1.0929,1.097,1.1011,1.1086,1.1135,1.1168,1.122,1.1285,1.1339,1.1353,1.1375,1.1377,1.1393,1.1358,1.1355,1.1353,1.134,1.1381,1.1381,1.1426,1.1426,1.1426]},{"header":{"parameterUnit":"m.s-1","parameterCategory":1,"la1":30.2991,"la2":30.254,"lo1":-89.0895,"lo2":-89.0444,"dy":0.0017,"dx":0.0017,"nx":28,"ny":28,"refTime":"2026-02-02T09:00:00:Z","depth":0,"parameterNumber":3,"parameterNumberName":"V-component_of_WINDS"},"data":[0,0,0,0,0,0,0,0,0,0,0,0,0,0,0,0,0,0,0,0,0,0,0,0,0,0,0,0,0,0,0,0,0,0,0,0,0,0,0,0,0,0,0,0,0,0,0,0,0,0,0,0,0,0,0,0,0,0,3.5115,3.5117,0,3.5366,3.5369,3.5372,3.544,3.5439,3.5437,3.5436,3.5697,3.5705,3.5713,0,0,0,0,0,0,0,0,0,0,0,0,0,3.4698,3.4706,3.5114,3.5117,3.5121,3.5366,3.5369,3.5372,3.5441,3.5439,3.5437,3.5435,3.5694,3.5704,3.5714,0,0,0,0,0,0,0,0,0,0,0,0,0,3.4907,3.4708,3.5114,3.5184,3.5193,3.5365,3.5369,3.5373,3.5441,3.5439,3.5437,3.5435,3.5691,3.5703,3.5715,3.5836,0,0,3.5753,3.5758,0,0,0,0,0,0,0,0,3.4895,3.4923,3.5171,3.5179,3.519,3.5369,3.5318,3.5529,3.5442,3.5347,3.5436,3.5433,3.559,3.561,3.5662,3.5848,3.5859,3.5754,3.5762,3.5767,3.5771,0,0,0,0,0,0,0,3.4881,3.4912,3.5214,3.5174,3.5186,3.5205,3.5232,3.5358,3.5478,3.5355,3.536,3.5389,3.5595,3.565,3.5669,3.5863,3.5754,3.5765,3.5773,3.5777,3.6166,3.6169,0,0,0,0,0,0,3.4854,3.49,3.5206,3.5221,3.5034,3.5214,3.5245,3.5314,3.5476,3.5499,3.5391,3.5391,3.563,3.5654,3.5678,3.5835,3.5767,3.5779,3.5786,3.6164,3.6167,3.617,0,0,0,0,0,0,3.4845,3.488,3.5196,3.5062,3.5104,3.5224,3.5301,3.532,3.5376,3.5504,3.5526,3.5425,3.5629,3.5661,3.5797,3.5845,3.5784,3.5796,3.616,3.6165,3.6169,3.6146,0,0,0,0,0,0,3.4832,3.4877,3.4922,3.5063,3.5111,3.5309,3.5304,3.5327,3.5397,3.54,3.5542,3.5563,3.563,3.5778,3.581,3.5861,3.5805,3.6157,3.6162,3.6167,3.6143,3.6148,3.6153,0,0,0,0,0,3.4817,3.4905,3.4924,3.4961,3.517,3.5311,3.5339,3.5413,3.54,3.5449,3.5531,3.5559,3.5834,3.5792,3.5828,3.5883,3.6154,3.6161,3.6167,3.614,3.6147,3.6153,0,0,0,0,0,0,3.4767,3.4925,3.4948,3.5083,3.5183,3.5322,3.5385,3.5417,3.5523,3.5522,3.561,3.5642,3.5773,3.5842,3.5792,3.6011,3.5995,3.6009,3.5962,3.597,3.5975,3.5957,3.5816,0,0,0,0,0,3.4772,3.4872,3.5005,3.5112,3.5161,3.5264,3.5328,3.5377,3.5485,3.5527,3.562,3.5724,3.5835,3.5906,3.6014,3.6152,3.6187,3.6209,3.6214,3.6218,3.623,3.6313,3.6325,3.6191,3.6191,3.6191,0,0,3.4783,3.4881,3.4939,3.5104,3.5187,3.5292,3.5299,3.5408,3.5487,3.5544,3.568,3.5751,3.5874,3.6013,3.6079,3.6074,3.6274,3.6226,3.6228,3.6238,3.6321,3.6333,3.6344,3.6196,3.6195,3.6194,0,0,3.4856,3.4939,3.504,3.5124,3.525,3.5319,3.5342,3.5478,3.5528,3.5665,3.5712,3.5807,3.5994,3.6082,3.615,3.6261,3.6292,3.6293,3.6323,3.6403,3.6413,3.6423,3.6467,3.6481,3.6304,3.6304,3.6304,0,3.4854,3.5012,3.5087,3.5196,3.5269,3.5325,3.543,3.5508,3.5663,3.5713,3.5705,3.5944,3.6031,3.6193,3.622,3.6273,3.6306,3.6279,3.6405,3.6416,3.6427,3.6469,3.6485,3.6304,3.6304,3.6304,3.6304,0,3.5005,3.5114,3.518,3.5329,3.541,3.5515,3.5609,3.5682,3.5724,3.5795,3.5936,3.6042,3.6175,3.6216,3.6258,3.6387,3.638,3.6387,3.6373,3.6438,3.648,3.6496,3.6303,3.6304,3.6304,3.6304,0,0,3.5054,3.5246,3.5269,3.534,3.5484,3.5571,3.568,3.581,3.5873,3.5978,3.6075,3.6234,3.6243,3.6321,3.6373,3.6443,3.653,3.6443,3.6447,3.6459,3.6683,3.6679,3.6696,3.655,3.6553,3.6556,3.6674,0,3.5149,3.5345,3.5419,3.5581,3.5685,3.5742,3.5838,3.5939,3.6008,3.6108,3.6185,3.6298,3.6299,3.6347,3.6418,3.6503,3.6576,3.6496,3.6644,3.6649,3.6615,3.6717,3.6713,3.6818,3.669,3.6693,3.6695,0,3.5285,3.5393,3.5566,3.5702,3.5749,3.5833,3.5961,3.6054,3.6171,3.6217,3.6306,3.6354,3.6475,3.6451,3.662,3.6564,3.6629,3.6681,3.6687,3.6706,3.6678,3.6743,3.6854,3.6871,3.6721,3.6719,3.6717,0,3.5308,3.5497,3.5626,3.5684,3.5845,3.5904,3.5974,3.6088,3.6163,3.6275,3.6325,3.6449,3.6518,3.6614,3.6696,3.6671,3.686,3.6842,3.6905,3.6903,3.6944,3.694,3.707,3.698,3.6979,3.6979,3.6979,0,3.5408,3.5512,3.5639,3.5719,3.5839,3.5923,3.6041,3.6114,3.6217,3.6314,3.637,3.646,3.6562,3.6667,3.6732,3.6865,3.6894,3.6937,3.6954,3.6935,3.693,3.6981,3.6977,3.6983,3.6982,3.6982,3.6981,0,3.5455,3.5543,3.5689,3.5829,3.5868,3.595,3.6072,3.6154,3.6226,3.6349,3.6382,3.6497,3.6624,3.6715,3.6877,3.6921,3.7066,3.708,3.7026,3.7035,3.7094,3.7089,3.7264,3.7293,3.7179,3.718,3.7181,0,3.5514,3.5596,3.5746,3.5815,3.5885,3.5995,3.6073,3.616,3.6238,3.638,3.6445,3.6575,3.6684,3.6884,3.6983,3.7109,3.713,3.7183,3.7149,3.7128,3.7136,3.7131,3.7142,3.7188,3.7189,3.719,3.719,0,3.5611,3.5652,3.576,3.5886,3.5977,3.6079,3.6183,3.6237,3.6343,3.6429,3.6559,3.6643,3.6811,3.6941,3.7078,3.7152,3.7191,3.72,3.7222,3.7204,3.7171,3.7194,3.7043,3.7196,3.7195,3.7195,3.7194,3.7194,3.5669,3.5747,3.5866,3.5986,3.6073,3.617,3.6255,3.6338,3.6448,3.6591,3.6636,3.6772,3.6891,3.7078,3.7155,3.7265,3.7263,3.7293,3.7302,3.7309,3.731,3.7151,3.7289,3.7289,3.7289,3.7289,3.7289,0,3.5773,3.5853,3.5963,3.6107,3.6203,3.6229,3.6346,3.6425,3.6544,3.6651,3.6758,3.691,3.7037,3.7147,3.728,3.7347,3.7369,3.738,3.7378,3.7395,3.7302,3.7272,3.7361,3.7361,3.7361,3.7361,3.7361,3.7361,3.5838,3.5972,3.6027,3.6207,3.6287,3.642,3.6485,3.6576,3.6663,3.683,3.6936,3.7006,3.7117,3.7259,3.7378,3.7408,3.7456,3.7464,3.7498,3.7409,3.7401,3.7393,3.7365,3.7472,3.7472,3.7582,3.7583,3.7584]}]]